Location: Unspecified
(52.4190°N, 0.0000°E)
Time: 04:49:52
(UTC+00:00)

CSL-04 Deb - Visible Passes

Search period start: 05 April 2026 00:00
Search period end: 15 April 2026 00:00
Orbit: 695 x 834 km, 98.8° (Epoch: 28 March)

Date Brightness Start Highest point End Pass type
(mag) Time Alt. Az. Time Alt. Az. Time Alt. Az.
5 Apr ? 20:20:15 10° S 20:24:47 45° W 20:29:19 10° NNW visible
6 Apr ? 19:42:59 10° SSE 19:47:43 89° E 19:52:28 10° NNW visible
6 Apr ? 21:24:55 10° WSW 21:27:24 14° W 21:29:53 10° NW visible
7 Apr ? 20:45:57 10° SSW 20:50:00 28° W 20:54:05 10° NW visible
8 Apr ? 20:08:11 10° S 20:12:49 57° WSW 20:17:29 10° NNW visible
9 Apr ? 19:31:08 10° SSE 19:35:49 72° ENE 19:40:33 10° NNW visible
9 Apr ? 21:12:09 10° SW 21:15:19 18° W 21:18:32 10° NW visible
10 Apr ? 20:33:41 10° SSW 20:38:00 35° W 20:42:22 10° NNW visible
11 Apr ? 19:56:10 10° S 20:00:52 72° WSW 20:05:38 10° NNW visible
11 Apr ? 21:39:32 10° W 21:40:45 11° W 21:41:58 10° WNW visible
12 Apr ? 19:19:19 10° SE 19:23:55 57° ENE 19:28:36 10° N visible
12 Apr ? 20:59:36 10° SW 21:03:16 22° W 21:07:00 10° NW visible
13 Apr ? 20:21:31 10° S 20:26:00 45° W 20:30:35 10° NNW visible
14 Apr ? 19:44:13 10° SSE 19:48:56 90° ENE 19:53:45 10° NNW visible
14 Apr ? 21:26:09 10° WSW 21:28:39 14° W 21:31:10 10° NW visible
